| time (UTC) | temp F | wind direction | speed MPH | gust MPH | rain 1hr in | rain 24hr in | rain mn in | humidity % | barometer mb |
| 20260505055930 | 47 | 306 | 4.0 | 7.0 | 0.00 | 0.00 | 0.00 | 50 | 1004.2 |
| 20260505055433 | 47 | 306 | 5.0 | 7.0 | 0.00 | 0.00 | 0.00 | 48 | 1004.2 |
| 20260505055134 | 47 | 306 | 8.0 | 10.0 | 0.00 | 0.00 | 0.00 | 47 | 1004.2 |
| 20260505054959 | 47 | 311 | 6.0 | 10.0 | 0.00 | 0.00 | 0.00 | 48 | 1004.2 |
| 20260505054313 | 48 | 294 | 8.0 | 11.0 | 0.00 | 0.00 | 0.00 | 47 | 1004.2 |
| 20260505054301 | 48 | 305 | 9.0 | 11.0 | 0.00 | 0.00 | 0.00 | 47 | 1004.1 |
| 20260505054031 | 47 | 303 | 8.0 | 10.0 | 0.00 | 0.00 | 0.00 | 48 | 1004.1 |
| 20260505052810 | 48 | 297 | 10.0 | 15.0 | 0.00 | 0.00 | 0.00 | 46 | 1004.0 |
| 20260505052758 | 48 | 298 | 10.0 | 15.0 | 0.00 | 0.00 | 0.00 | 45 | 1003.9 |
| 20260505052527 | 48 | 306 | 9.0 | 12.0 | 0.00 | 0.00 | 0.00 | 46 | 1004.0 |
| 20260505051311 | 49 | 308 | 11.0 | 16.0 | 0.00 | 0.00 | 0.00 | 46 | 1003.7 |
| 20260505051253 | 49 | 311 | 12.0 | 17.0 | 0.00 | 0.00 | 0.00 | 46 | 1003.7 |
| 20260505051018 | 48 | 302 | 10.0 | 14.0 | 0.00 | 0.00 | 0.00 | 46 | 1003.9 |
| 20260505050656 | 49 | 311 | 10.0 | 16.0 | 0.00 | 0.00 | 0.00 | 46 | 1003.9 |
| 20260505041702 | 51 | 325 | 8.0 | 12.0 | 0.00 | 0.00 | 0.00 | 45 | 1003.0 |
| 20260505041510 | 51 | 322 | 9.0 | 12.0 | 0.00 | 0.00 | 0.00 | 45 | 1003.1 |
| 20260505040432 | 51 | 323 | 8.0 | 11.0 | 0.00 | 0.00 | 0.00 | 47 | 1002.9 |
| 20260505035930 | 52 | 322 | 9.0 | 11.0 | 0.00 | 0.00 | 0.00 | 45 | 1002.8 |
| 20260505035428 | 52 | 321 | 7.0 | 11.0 | 0.00 | 0.00 | 0.00 | 46 | 1002.7 |
| 20260505034932 | 52 | 323 | 7.0 | 9.0 | 0.00 | 0.00 | 0.00 | 47 | 1002.7 |
| 20260505034433 | 52 | 306 | 7.0 | 11.0 | 0.00 | 0.00 | 0.00 | 46 | 1002.5 |
| 20260505034139 | 52 | 311 | 10.0 | 13.0 | 0.00 | 0.00 | 0.00 | 45 | 1002.4 |
| 20260505033956 | 52 | 303 | 9.0 | 13.0 | 0.00 | 0.00 | 0.00 | 46 | 1002.5 |
| 20260505032933 | 52 | 308 | 10.0 | 14.0 | 0.00 | 0.00 | 0.00 | 45 | 1002.3 |
| 20260505032429 | 53 | 304 | 11.0 | 15.0 | 0.00 | 0.00 | 0.00 | 45 | 1002.3 |
| 20260505032155 | 53 | 298 | 12.0 | 19.0 | 0.00 | 0.00 | 0.00 | 45 | 1002.3 |
| 20260505032006 | 53 | 304 | 13.0 | 19.0 | 0.00 | 0.00 | 0.00 | 45 | 1002.2 |
| 20260505030929 | 53 | 305 | 12.0 | 16.0 | 0.00 | 0.00 | 0.00 | 45 | 1002.2 |
| 20260505030430 | 53 | 305 | 12.0 | 16.0 | 0.00 | 0.00 | 0.00 | 45 | 1001.8 |
| 20260505025929 | 54 | 310 | 12.0 | 17.0 | 0.00 | 0.00 | 0.00 | 45 | 1001.7 |
| 20260505025632 | 55 | 304 | 10.0 | 16.0 | 0.00 | 0.00 | 0.00 | 45 | 1001.3 |
| 20260505025620 | 55 | 300 | 10.0 | 14.0 | 0.00 | 0.00 | 0.00 | 44 | 1001.2 |
| 20260505025541 | 55 | 309 | 9.0 | 14.0 | 0.00 | 0.00 | 0.00 | 44 | 1001.1 |
| 20260505025440 | 54 | 319 | 12.0 | 18.0 | 0.00 | 0.00 | 0.00 | 44 | 1001.7 |
| 20260505025111 | 54 | 308 | 12.0 | 18.0 | 0.00 | 0.00 | 0.00 | 45 | 1001.4 |
| 20260505022932 | 55 | 299 | 9.0 | 12.0 | 0.00 | 0.00 | 0.00 | 44 | 1001.0 |
| 20260505022712 | 56 | 312 | 10.0 | 13.0 | 0.00 | 0.00 | 0.00 | 44 | 1000.7 |
| 20260505022509 | 56 | 301 | 9.0 | 12.0 | 0.00 | 0.00 | 0.00 | 44 | 1000.9 |
| 20260505021428 | 56 | 306 | 10.0 | 15.0 | 0.00 | 0.00 | 0.00 | 43 | 1000.6 |
| 20260505020929 | 56 | 297 | 11.0 | 15.0 | 0.00 | 0.00 | 0.00 | 43 | 1000.5 |
| 20260505020634 | 56 | 309 | 11.0 | 15.0 | 0.00 | 0.00 | 0.00 | 42 | 1000.2 |
| 20260505020501 | 56 | 313 | 11.0 | 15.0 | 0.00 | 0.00 | 0.00 | 42 | 1000.5 |
| 20260505015433 | 57 | 313 | 10.0 | 14.0 | 0.00 | 0.00 | 0.00 | 43 | 1000.1 |
| 20260505014929 | 57 | 309 | 10.0 | 14.0 | 0.00 | 0.00 | 0.00 | 41 | 1000.0 |
| 20260505014428 | 57 | 314 | 9.0 | 14.0 | 0.00 | 0.00 | 0.00 | 41 | 999.9 |
| 20260505014021 | 58 | 302 | 10.0 | 15.0 | 0.00 | 0.00 | 0.00 | 41 | 999.5 |
| 20260505013934 | 57 | 315 | 9.0 | 13.0 | 0.00 | 0.00 | 0.00 | 41 | 999.8 |
| 20260505013556 | 57 | 311 | 9.0 | 13.0 | 0.00 | 0.00 | 0.00 | 41 | 999.7 |
| 20260505013005 | 58 | 306 | 9.0 | 12.0 | 0.00 | 0.00 | 0.00 | 41 | 999.5 |
| 20260505011928 | 58 | 313 | 11.0 | 15.0 | 0.00 | 0.00 | 0.00 | 40 | 999.4 |
| 20260505011429 | 58 | 302 | 11.0 | 15.0 | 0.00 | 0.00 | 0.00 | 40 | 999.3 |
| 20260505010930 | 58 | 304 | 11.0 | 17.0 | 0.00 | 0.00 | 0.00 | 41 | 999.3 |
| 20260505010430 | 58 | 312 | 10.0 | 17.0 | 0.00 | 0.00 | 0.00 | 39 | 999.2 |
| 20260505005935 | 58 | 303 | 10.0 | 15.0 | 0.00 | 0.00 | 0.00 | 41 | 999.3 |
| 20260505005431 | 59 | 308 | 9.0 | 15.0 | 0.00 | 0.00 | 0.00 | 40 | 999.2 |
| 20260505004930 | 59 | 315 | 10.0 | 14.0 | 0.00 | 0.00 | 0.00 | 39 | 999.2 |
| 20260505004433 | 59 | 304 | 9.0 | 13.0 | 0.00 | 0.00 | 0.00 | 40 | 999.2 |
| 20260505003932 | 59 | 302 | 8.0 | 12.0 | 0.00 | 0.00 | 0.00 | 40 | 999.2 |
| 20260505003434 | 59 | 296 | 8.0 | 11.0 | 0.00 | 0.00 | 0.00 | 41 | 999.0 |
| 20260505002930 | 60 | 297 | 7.0 | 11.0 | 0.00 | 0.00 | 0.00 | 42 | 999.0 |
| 20260505002432 | 60 | 307 | 6.0 | 9.0 | 0.00 | 0.00 | 0.00 | 43 | 999.0 |
| 20260505001935 | 60 | 292 | 7.0 | 11.0 | 0.00 | 0.00 | 0.00 | 42 | 998.9 |
| 20260505001430 | 60 | 296 | 7.0 | 11.0 | 0.00 | 0.00 | 0.00 | 41 | 998.8 |
| 20260505000935 | 60 | 297 | 8.0 | 13.0 | 0.00 | 0.00 | 0.00 | 42 | 998.7 |
| 20260505000434 | 60 | 298 | 10.0 | 14.0 | 0.00 | 0.00 | 0.00 | 40 | 998.7 |
| 20260504235931 | 60 | 309 | 11.0 | 14.0 | 0.00 | 0.00 | 0.00 | 39 | 998.6 |
| 20260504235431 | 61 | 306 | 11.0 | 16.0 | 0.00 | 0.00 | 0.00 | 40 | 998.7 |
| 20260504235227 | 61 | 310 | 10.0 | 15.0 | 0.00 | 0.00 | 0.00 | 37 | 998.5 |
| 20260504235000 | 61 | 305 | 12.0 | 16.0 | 0.00 | 0.00 | 0.00 | 37 | 998.6 |
| 20260504233920 | 61 | 306 | 10.0 | 15.0 | 0.00 | 0.00 | 0.00 | 37 | 998.5 |
| 20260504233418 | 62 | 290 | 12.0 | 17.0 | 0.00 | 0.00 | 0.00 | 35 | 998.4 |
| 20260504233149 | 63 | 289 | 12.0 | 17.0 | 0.00 | 0.00 | 0.00 | 33 | 998.2 |
| 20260504232955 | 62 | 294 | 13.0 | 17.0 | 0.00 | 0.00 | 0.00 | 34 | 998.3 |
| 20260504232025 | 64 | 316 | 9.0 | 17.0 | 0.00 | 0.00 | 0.00 | 33 | 997.7 |
| 20260504231929 | 63 | 295 | 12.0 | 17.0 | 0.00 | 0.00 | 0.00 | 31 | 998.2 |
| 20260504231549 | 63 | 298 | 11.0 | 15.0 | 0.00 | 0.00 | 0.00 | 32 | 998.1 |
| 20260504230957 | 64 | 306 | 11.0 | 17.0 | 0.00 | 0.00 | 0.00 | 33 | 997.9 |
| 20260504225917 | 64 | 302 | 8.0 | 13.0 | 0.00 | 0.00 | 0.00 | 35 | 997.7 |
| 20260504225421 | 64 | 284 | 8.0 | 12.0 | 0.00 | 0.00 | 0.00 | 33 | 997.6 |
| 20260504225215 | 64 | 311 | 9.0 | 13.0 | 0.00 | 0.00 | 0.00 | 34 | 997.6 |
| 20260504224947 | 64 | 290 | 8.0 | 11.0 | 0.00 | 0.00 | 0.00 | 34 | 997.6 |
| 20260504223910 | 64 | 302 | 11.0 | 15.0 | 0.00 | 0.00 | 0.00 | 32 | 997.5 |
| 20260504223637 | 65 | 298 | 8.0 | 14.0 | 0.00 | 0.00 | 0.00 | 33 | 997.4 |
| 20260504223443 | 65 | 284 | 11.0 | 15.0 | 0.00 | 0.00 | 0.00 | 32 | 997.4 |
| 20260504222404 | 65 | 296 | 8.0 | 11.0 | 0.00 | 0.00 | 0.00 | 35 | 997.4 |
| 20260504221904 | 65 | 294 | 9.0 | 13.0 | 0.00 | 0.00 | 0.00 | 35 | 997.3 |
| 20260504221405 | 65 | 299 | 10.0 | 14.0 | 0.00 | 0.00 | 0.00 | 35 | 997.3 |
| 20260504220909 | 65 | 307 | 11.0 | 15.0 | 0.00 | 0.00 | 0.00 | 33 | 997.2 |
| 20260504220409 | 66 | 303 | 9.0 | 15.0 | 0.00 | 0.00 | 0.00 | 34 | 997.2 |
| 20260504215904 | 66 | 305 | 7.0 | 13.0 | 0.00 | 0.00 | 0.00 | 36 | 997.3 |
| 20260504215405 | 66 | 284 | 6.0 | 10.0 | 0.00 | 0.00 | 0.00 | 38 | 997.2 |
| 20260504214906 | 66 | 263 | 7.0 | 12.0 | 0.00 | 0.00 | 0.00 | 36 | 997.2 |
| 20260504214643 | 66 | 302 | 7.0 | 13.0 | 0.00 | 0.00 | 0.00 | 36 | 997.0 |
| 20260504214435 | 66 | 296 | 7.0 | 12.0 | 0.00 | 0.00 | 0.00 | 39 | 997.0 |
| 20260504213400 | 66 | 288 | 8.0 | 14.0 | 0.00 | 0.00 | 0.00 | 37 | 997.1 |
| 20260504212902 | 66 | 285 | 9.0 | 14.0 | 0.00 | 0.00 | 0.00 | 36 | 997.0 |
| 20260504212407 | 66 | 288 | 10.0 | 13.0 | 0.00 | 0.00 | 0.00 | 36 | 996.9 |
| 20260504211903 | 67 | 288 | 12.0 | 18.0 | 0.00 | 0.00 | 0.00 | 34 | 996.9 |
| 20260504211406 | 67 | 321 | 12.0 | 18.0 | 0.00 | 0.00 | 0.00 | 35 | 996.9 |
| 20260504210901 | 67 | 306 | 11.0 | 18.0 | 0.00 | 0.00 | 0.00 | 36 | 997.0 |
| 20260504210402 | 67 | 295 | 12.0 | 18.0 | 0.00 | 0.00 | 0.00 | 35 | 996.9 |
| 20260504205907 | 67 | 294 | 11.0 | 18.0 | 0.00 | 0.00 | 0.00 | 33 | 997.0 |
| 20260504205637 | 68 | 295 | 10.0 | 16.0 | 0.00 | 0.00 | 0.00 | 36 | 996.9 |
| 20260504205433 | 67 | 300 | 10.0 | 16.0 | 0.00 | 0.00 | 0.00 | 33 | 996.9 |
| 20260504204402 | 68 | 303 | 10.0 | 15.0 | 0.00 | 0.00 | 0.00 | 34 | 996.6 |
| 20260504203903 | 68 | 292 | 11.0 | 16.0 | 0.00 | 0.00 | 0.00 | 37 | 996.7 |
| 20260504203405 | 69 | 303 | 11.0 | 16.0 | 0.00 | 0.00 | 0.00 | 36 | 996.6 |
| 20260504202902 | 69 | 305 | 10.0 | 15.0 | 0.00 | 0.00 | 0.00 | 35 | 996.5 |
| 20260504202408 | 69 | 301 | 11.0 | 15.0 | 0.00 | 0.00 | 0.00 | 37 | 996.4 |
| 20260504201908 | 70 | 316 | 12.0 | 17.0 | 0.00 | 0.00 | 0.00 | 34 | 996.4 |
| 20260504201408 | 70 | 304 | 13.0 | 17.0 | 0.00 | 0.00 | 0.00 | 32 | 996.4 |
| 20260504200906 | 71 | 318 | 11.0 | 17.0 | 0.00 | 0.00 | 0.00 | 33 | 996.3 |
| 20260504200407 | 71 | 302 | 10.0 | 14.0 | 0.00 | 0.00 | 0.00 | 35 | 996.2 |
| 20260504195907 | 71 | 311 | 11.0 | 16.0 | 0.00 | 0.00 | 0.00 | 33 | 996.1 |
| 20260504195403 | 72 | 314 | 12.0 | 16.0 | 0.00 | 0.00 | 0.00 | 34 | 996.1 |
| 20260504194900 | 72 | 314 | 11.0 | 14.0 | 0.00 | 0.00 | 0.00 | 33 | 996.0 |
| 20260504194403 | 72 | 306 | 10.0 | 14.0 | 0.00 | 0.00 | 0.00 | 33 | 996.0 |
| 20260504193905 | 73 | 302 | 9.0 | 15.0 | 0.00 | 0.00 | 0.00 | 34 | 996.0 |
| 20260504193401 | 73 | 281 | 8.0 | 15.0 | 0.00 | 0.00 | 0.00 | 35 | 996.0 |
| 20260504192901 | 74 | 308 | 6.0 | 15.0 | 0.00 | 0.00 | 0.00 | 35 | 995.8 |
| 20260504192401 | 74 | 261 | 6.0 | 13.0 | 0.00 | 0.00 | 0.00 | 34 | 995.8 |
| 20260504191901 | 74 | 262 | 7.0 | 12.0 | 0.00 | 0.00 | 0.00 | 34 | 995.7 |
| 20260504191406 | 74 | 297 | 7.0 | 12.0 | 0.00 | 0.00 | 0.00 | 33 | 995.7 |
| 20260504191137 | 75 | 232 | 7.0 | 12.0 | 0.00 | 0.00 | 0.00 | 35 | 995.7 |
| 20260504190940 | 75 | 270 | 7.0 | 11.0 | 0.00 | 0.00 | 0.00 | 34 | 995.8 |
| 20260504185901 | 74 | 279 | 8.0 | 14.0 | 0.00 | 0.00 | 0.00 | 36 | 995.7 |
| 20260504185406 | 74 | 299 | 8.0 | 14.0 | 0.00 | 0.00 | 0.00 | 34 | 995.7 |
| 20260504184902 | 74 | 303 | 7.0 | 15.0 | 0.00 | 0.00 | 0.00 | 37 | 995.7 |
| 20260504184405 | 74 | 298 | 8.0 | 17.0 | 0.00 | 0.00 | 0.00 | 35 | 995.7 |
| 20260504183904 | 73 | 298 | 10.0 | 17.0 | 0.00 | 0.00 | 0.00 | 38 | 995.8 |
| 20260504183403 | 74 | 278 | 9.0 | 15.0 | 0.00 | 0.00 | 0.00 | 36 | 995.6 |
| 20260504182905 | 74 | 306 | 7.0 | 15.0 | 0.00 | 0.00 | 0.00 | 42 | 995.7 |
| 20260504182405 | 74 | 294 | 6.0 | 12.0 | 0.00 | 0.00 | 0.00 | 42 | 995.7 |
| 20260504181904 | 73 | 232 | 5.0 | 12.0 | 0.00 | 0.00 | 0.00 | 47 | 995.7 |
| 20260504181604 | 72 | 273 | 5.0 | 11.0 | 0.00 | 0.00 | 0.00 | 45 | 995.6 |
| 20260504181434 | 72 | 250 | 5.0 | 9.0 | 0.00 | 0.00 | 0.00 | 45 | 995.7 |
| 20260504180401 | 71 | 294 | 5.0 | 11.0 | 0.00 | 0.00 | 0.00 | 41 | 995.6 |
| 20260504175901 | 72 | 255 | 6.0 | 13.0 | 0.00 | 0.00 | 0.00 | 42 | 995.5 |
| 20260504175401 | 72 | 266 | 7.0 | 13.0 | 0.00 | 0.00 | 0.00 | 42 | 995.7 |
| 20260504174902 | 71 | 266 | 8.0 | 16.0 | 0.00 | 0.00 | 0.00 | 43 | 995.6 |
| 20260504174402 | 71 | 232 | 10.0 | 16.0 | 0.00 | 0.00 | 0.00 | 46 | 995.7 |
| 20260504173902 | 71 | 297 | 10.0 | 15.0 | 0.00 | 0.00 | 0.00 | 45 | 995.6 |
| 20260504173408 | 71 | 294 | 11.0 | 15.0 | 0.00 | 0.00 | 0.00 | 44 | 995.6 |
| 20260504172902 | 71 | 272 | 12.0 | 16.0 | 0.00 | 0.00 | 0.00 | 42 | 995.5 |
| 20260504172406 | 72 | 303 | 11.0 | 17.0 | 0.00 | 0.00 | 0.00 | 43 | 995.5 |
| 20260504171902 | 73 | 312 | 11.0 | 17.0 | 0.00 | 0.00 | 0.00 | 43 | 995.4 |
| 20260504171401 | 73 | 302 | 11.0 | 17.0 | 0.00 | 0.00 | 0.00 | 40 | 995.5 |
| 20260504170903 | 74 | 296 | 10.0 | 17.0 | 0.00 | 0.00 | 0.00 | 41 | 995.4 |
| 20260504170621 | 74 | 301 | 8.0 | 14.0 | 0.00 | 0.00 | 0.00 | 40 | 995.2 |
| 20260504170434 | 74 | 302 | 8.0 | 17.0 | 0.00 | 0.00 | 0.00 | 39 | 995.3 |
| 20260504160437 | 71 | 279 | 7.0 | 12.0 | 0.00 | 0.00 | 0.00 | 39 | 995.5 |
| 20260504150903 | 70 | 252 | 5.0 | 12.0 | 0.00 | 0.00 | 0.00 | 43 | 995.7 |
| 20260504150403 | 70 | 299 | 5.0 | 12.0 | 0.00 | 0.00 | 0.00 | 42 | 995.8 |
| 20260504140905 | 67 | 232 | 6.0 | 11.0 | 0.00 | 0.00 | 0.00 | 43 | 996.0 |
| 20260504140401 | 66 | 237 | 6.0 | 12.0 | 0.00 | 0.00 | 0.00 | 43 | 996.1 |
| 20260504130401 | 60 | 304 | 4.0 | 7.0 | 0.00 | 0.00 | 0.00 | 50 | 996.7 |
| 20260504110500 | 50 | 162 | 1.0 | 2.0 | 0.00 | 0.00 | 0.00 | 60 | 997.4 |
| 20260504081829 | 46 | 300 | 0.0 | 0.0 | 0.00 | 0.00 | 0.00 | 74 | 999.8 |
| 20260504081330 | 46 | 300 | 0.0 | 0.0 | 0.00 | 0.00 | 0.00 | 74 | 999.8 |
| 20260504080833 | 46 | 300 | 0.0 | 0.0 | 0.00 | 0.00 | 0.00 | 74 | 999.9 |
| 20260504080329 | 46 | 300 | 0.0 | 0.0 | 0.00 | 0.00 | 0.00 | 74 | 999.9 |